Temp
24 24 24 24 24 24 24 24 24 24 25 25 25 25 25 25 25 25 25 25 25 25 25 25 25 24 24 24 24 24 24 24 24 24 24 24 24 24 24 24 24 24 24 24 24 24 24 24 24 25 25 25 25 25 25 25 25 25 25 25 25 25 25 25 24 24 25 26 26 26 26 26 26 26 26 26 26 26 26 26 26 26 26 26 26
24 24 24 24 24 24 24 24 24 24 24 25 25 25 25 25 25 25 25 25 25 25 25 25 25 24 24 24 24 24 24 24 24 24 24 24 24 24 24 24 24 24 24 24 24 24 24 24 24 25 25 25 25 25 25 25 25 25 25 25 25 25 25 25 25 24 25 26 26 26 26 26 26 26 26 26 26 26 27 27 27 27 27 27 27
24 24 24 24 24 24 24 24 24 24 24 24 25 25 25 25 25 25 25 25 25 25 25 25 25 24 24 24 25 25 25 25 25 25 24 24 24 24 24 24 24 24 24 24 24 24 24 24 25 25 25 25 25 25 25 25 25 25 25 25 25 25 25 25 25 25 25 25 26 26 26 26 26 26 26 26 26 26 26 27 27 27 27 27 27
24 23 23 24 24 24 24 24 24 24 24 24 24 24 25 25 25 25 25 25 25 25 25 25 25 25 25 25 25 25 25 25 25 25 25 25 24 24 24 24 24 24 24 24 24 24 24 25 25 25 25 25 25 25 25 25 25 25 25 25 25 25 25 25 25 25 25 25 25 26 26 26 26 26 26 26 26 26 26 27 27 28 28 28 28
23 23 23 23 23 23 23 24 24 24 24 24 24 24 24 25 25 25 25 25 25 25 25 25 25 25 25 25 25 25 25 25 25 25 25 25 25 24 24 24 24 24 24 24 24 24 24 24 25 25 25 25 25 25 25 25 25 25 25 25 25 25 25 25 25 25 25 25 25 26 26 26 26 26 26 26 26 26 27 27 27 28 28 28 28
22 22 22 23 23 23 23 23 23 24 24 24 24 24 24 24 24 25 25 25 25 25 25 25 25 25 25 25 25 25 25 25 25 25 25 25 25 25 25 24 24 24 24 24 24 24 24 24 25 25 25 25 25 25 25 25 25 25 25 25 25 25 25 25 25 25 25 25 25 25 26 26 26 26 26 26 26 26 27 27 28 28 27 28 28
22 22 22 22 22 22 23 23 23 23 24 24 24 24 24 24 24 24 24 24 24 25 25 25 25 25 25 25 25 25 25 25 25 25 25 25 25 25 25 25 25 25 25 25 24 24 24 24 25 25 25 25 25 25 25 25 25 25 25 25 25 25 25 25 25 25 25 25 25 25 25 26 26 26 26 26 26 26 26 26 27 27 27 27 27
21 22 21 21 21 22 23 23 23 23 23 23 23 24 23 24 24 24 24 24 24 24 24 24 25 25 25 25 25 25 25 25 25 25 25 25 25 25 25 25 25 25 25 25 25 25 25 25 25 25 25 25 25 25 25 25 25 25 25 25 25 25 25 25 25 25 25 25 25 25 25 25 26 26 26 26 26 26 26 25 25 26 27 27 27
21 21 21 21 22 21 21 22 22 22 22 23 23 23 23 23 23 23 24 24 24 24 24 24 24 24 25 25 25 25 25 25 25 25 26 26 25 25 25 25 25 25 25 25 25 25 25 25 25 25 25 25 25 25 25 25 25 25 25 25 25 25 25 25 25 25 25 24 24 25 25 25 25 26 26 26 26 26 25 25 25 26 26 26 27
20 20 20 21 21 20 20 21 22 22 22 22 22 23 23 23 23 23 23 23 23 23 24 24 24 24 24 25 25 25 25 25 26 26 26 26 26 25 25 25 25 25 25 25 25 25 25 25 25 25 25 25 25 25 25 25 25 25 25 25 25 25 25 25 25 25 24 24 24 24 24 24 25 25 25 26 26 26 25 25 25 25 25 25 26
20 20 19 20 21 20 20 21 22 21 22 22 22 22 22 22 22 22 23 23 23 23 23 23 24 24 24 25 25 25 25 25 26 26 26 26 25 25 25 25 25 25 25 25 26 26 26 26 26 25 25 25 25 25 25 25 25 25 25 25 25 25 25 25 25 24 24 24 24 24 23 24 25 25 25 26 26 26 26 25 25 25 25 24 24
19 19 19 20 20 20 20 20 21 21 21 21 22 21 21 22 22 22 22 22 22 23 23 23 23 23 24 24 25 25 25 25 26 26 26 26 26 25 25 25 25 25 25 25 26 26 26 26 26 26 26 26 25 25 25 25 25 25 25 25 25 25 25 25 25 25 24 24 24 24 24 24 24 25 26 26 26 26 26 25 25 25 24 24 23
19 19 19 19 20 20 20 20 20 20 20 20 20 20 20 21 22 22 22 22 22 23 23 24 24 23 23 24 24 24 25 25 25 25 25 25 25 25 25 25 25 25 25 25 25 25 25 26 26 26 26 26 25 25 25 25 25 25 25 25 25 25 25 25 25 25 25 25 24 24 25 25 25 25 26 26 26 25 25 25 25 25 24 24 24
18 18 18 18 19 19 19 19 19 19 20 20 20 20 20 21 22 22 22 23 23 23 23 23 24 24 23 24 24 24 24 25 25 25 25 25 25 25 25 25 25 25 25 25 25 25 25 25 25 26 26 26 25 25 25 25 25 25 25 25 25 25 25 25 25 25 25 25 25 25 26 26 25 26 27 26 25 25 25 25 25 25 24 24 24
17 17 17 17 18 18 19 19 19 19 19 19 20 20 20 20 21 21 21 22 22 22 22 22 23 23 23 23 24 24 24 25 25 25 25 25 25 25 25 25 25 25 25 26 26 26 26 25 25 25 26 26 26 26 26 25 25 25 25 25 25 25 26 26 26 26 26 25 25 25 26 26 26 26 27 26 26 26 25 25 24 24 24 23 23
17 17 17 17 17 18 18 18 18 19 19 19 19 20 19 19 20 20 20 21 21 21 21 22 22 22 23 23 23 24 24 24 24 24 25 25 25 25 25 25 25 25 25 26 26 26 26 26 25 25 26 26 27 27 26 25 24 24 24 24 25 25 25 26 26 26 26 26 26 26 26 26 26 26 26 26 26 26 25 24 24 24 23 22 22
17 17 17 17 17 17 17 18 18 18 18 19 19 19 19 19 19 19 20 20 20 20 21 21 21 22 22 22 23 23 23 23 23 23 24 24 24 25 25 25 25 25 25 26 26 26 26 25 25 25 25 26 26 26 25 24 24 24 24 24 24 24 25 26 26 25 26 26 26 26 26 26 26 26 27 26 26 26 24 23 24 24 22 22 22
16 17 17 17 17 17 18 18 18 18 18 18 18 19 19 19 19 19 19 19 19 20 20 20 20 21 21 21 21 22 22 22 22 23 23 23 24 24 24 24 25 25 25 25 25 25 25 25 25 24 25 25 25 25 24 24 23 23 23 23 23 23 24 25 25 25 25 25 24 25 25 25 26 26 26 26 26 26 24 24 24 24 22 22 22
16 17 17 17 18 18 18 18 18 18 18 18 18 18 18 19 19 20 19 19 19 19 20 20 20 20 20 20 21 21 21 21 22 22 22 22 22 23 23 23 24 24 24 24 24 24 25 25 24 24 24 24 24 24 24 23 23 23 23 23 22 23 24 25 24 24 24 24 24 24 24 25 25 25 26 26 26 26 25 25 25 24 22 22 22
16 17 17 17 17 18 18 18 18 18 18 18 18 18 18 18 19 20 20 19 19 19 19 19 20 20 20 20 20 20 20 21 21 21 21 21 21 22 22 22 22 23 23 23 23 24 24 24 23 23 23 23 23 23 23 23 23 23 23 22 22 23 24 24 23 23 23 23 23 23 23 24 24 25 25 25 26 25 25 25 24 24 23 23 23
16 17 17 17 17 17 17 17 18 18 18 18 18 18 18 19 19 19 19 19 19 19 19 19 20 20 20 20 20 20 20 20 20 20 20 20 21 21 20 21 21 21 21 21 21 22 22 22 22 22 22 22 22 22 23 23 23 23 23 22 22 23 23 22 23 23 23 22 22 23 23 23 24 24 24 25 25 25 25 24 24 24 23 23 23
16 16 16 16 16 17 17 17 17 17 18 18 18 18 18 18 19 19 19 19 19 19 19 19 19 19 20 20 19 19 20 20 20 20 20 20 20 20 20 20 20 20 20 20 20 21 21 21 21 21 21 21 22 22 22 22 22 23 23 23 23 22 22 22 22 22 22 22 22 22 22 22 23 23 24 24 24 25 25 24 24 24 23 23 23
16 16 16 16 16 16 16 16 17 17 17 18 18 18 18 18 18 19 19 19 19 19 19 19 19 19 19 20 19 19 20 19 19 20 20 19 20 20 19 19 20 20 20 20 20 20 21 21 21 21 21 21 21 21 22 22 22 22 22 22 22 22 21 21 21 21 22 22 21 21 21 22 22 23 23 24 24 24 24 24 23 23 23 24 23
15 15 15 15 15 15 15 16 16 16 16 17 17 17 17 18 18 18 18 19 19 19 19 19 19 19 19 20 20 19 19 19 19 19 20 20 20 20 19 19 19 20 20 20 20 20 20 20 20 20 20 20 20 21 21 21 21 22 22 21 21 21 21 21 21 21 21 21 21 20 21 22 22 22 23 23 23 23 23 23 23 23 23 23 23
15 15 15 15 15 15 15 15 15 16 16 16 16 16 16 17 17 17 17 18 18 18 18 18 18 18 19 19 19 19 19 19 19 19 20 20 20 20 20 19 19 19 20 20 19 19 19 19 19 19 20 20 20 21 21 21 21 21 21 21 21 21 21 21 20 20 20 20 20 20 21 22 22 22 22 22 22 22 22 22 22 22 22 22 22
14 14 14 15 15 15 15 15 15 15 15 15 15 15 16 16 16 16 16 17 17 17 17 17 18 18 18 18 19 19 19 18 18 18 19 19 19 19 19 18 19 19 19 19 20 20 19 19 19 20 20 20 20 21 21 21 21 21 21 20 20 20 21 21 20 20 19 20 20 20 21 21 21 22 22 22 22 22 22 22 22 22 21 21 21
14 14 14 14 14 14 14 14 14 15 15 15 15 15 15 15 15 15 16 16 16 16 16 17 17 17 17 18 18 19 18 18 18 18 19 19 19 19 19 18 19 19 19 19 19 19 19 19 20 20 20 20 20 20 20 20 20 20 20 20 19 19 20 20 20 20 19 19 19 20 20 20 20 21 21 21 21 21 21 21 21 21 21 21 21
13 13 14 14 14 14 14 14 14 14 14 14 14 15 15 15 15 15 15 15 15 15 16 16 16 16 17 17 17 18 18 18 18 18 18 18 19 19 19 19 19 19 19 19 19 19 19 19 19 19 19 19 19 19 19 19 18 18 19 18 18 19 19 19 19 19 19 19 19 20 20 20 20 20 20 20 20 20 21 21 21 20 20 20 20
13 13 13 13 13 13 13 13 13 13 13 13 14 14 14 14 14 14 14 14 14 15 15 16 16 16 17 17 16 17 17 17 18 18 18 18 18 18 19 19 19 18 18 18 18 18 18 18 18 18 18 17 17 17 17 18 18 18 18 18 18 19 19 19 19 19 19 19 19 19 19 19 19 19 19 20 20 20 20 20 20 20 20 20 20
12 12 12 12 12 12 12 13 13 13 13 13 13 13 14 14 14 14 14 14 14 14 15 15 15 16 16 17 16 16 16 16 17 17 18 18 18 18 18 18 18 18 18 18 18 18 17 17 17 17 17 17 17 17 17 17 17 18 18 18 18 18 19 19 19 19 19 19 19 19 19 19 19 19 19 19 19 20 20 20 20 20 20 20 20
12 11 11 11 11 11 12 12 12 12 12 12 13 13 13 14 14 14 14 14 14 15 15 15 15 15 16 16 16 16 16 16 17 17 18 18 18 18 18 18 18 18 18 18 18 17 16 16 16 16 16 16 16 16 17 17 17 17 17 17 18 18 18 18 18 18 18 19 19 19 19 19 19 19 19 19 19 19 20 20 20 19 19 19 19
11 11 10 11 11 11 11 11 12 12 12 12 12 12 12 13 13 14 14 14 14 14 14 15 15 15 15 15 16 16 16 16 17 17 17 18 18 18 18 18 18 18 18 18 18 16 15 16 16 16 16 16 15 15 15 15 15 16 16 16 17 17 17 17 17 17 18 17 18 18 18 18 18 19 19 19 19 19 19 19 19 19 19 19 19
11 10 10 10 10 10 11 11 11 11 11 11 12 12 12 11 11 12 13 13 14 14 14 14 15 15 15 15 15 15 16 16 16 17 17 17 17 18 17 17 17 17 17 17 17 16 15 15 15 15 15 15 15 15 15 15 14 14 15 15 15 15 16 16 16 17 17 17 17 17 17 17 17 18 18 18 19 19 19 19 19 19 19 19 19
10 10 10 10 10 10 10 10 10 10 11 11 11 11 11 11 11 11 12 12 13 14 14 15 15 15 15 15 15 15 15 16 16 16 16 17 17 17 17 17 17 17 16 17 16 16 15 15 15 15 15 15 15 15 15 15 14 13 13 14 14 14 14 15 15 15 15 15 15 15 16 16 16 17 17 18 18 18 19 19 19 19 19 19 19
10 10 10 9 10 10 9 9 9 10 10 10 10 10 11 11 11 11 11 11 11 12 12 13 14 14 15 15 15 15 15 15 15 16 16 16 16 16 17 16 16 16 16 16 15 15 15 15 14 15 15 15 15 15 14 14 14 13 12 12 12 13 13 14 14 13 14 14 14 14 15 15 15 16 16 16 17 17 18 18 18 18 18 19 19
9 9 9 9 9 9 9 9 9 9 9 9 9 10 10 10 11 11 11 11 11 11 11 12 13 14 14 15 14 14 14 15 15 15 15 15 16 16 16 16 16 15 15 15 15 14 14 14 14 14 14 14 14 14 14 13 13 12 11 11 11 11 11 12 12 12 13 13 13 13 14 14 14 14 15 15 16 16 16 17 17 17 17 18 18
9 9 9 9 9 9 9 9 9 9 9 9 9 9 10 10 11 11 10 10 11 11 11 11 11 12 13 14 14 14 14 14 15 15 15 15 15 15 16 16 16 15 15 15 14 14 14 14 14 14 14 14 14 14 13 13 12 11 11 11 11 10 10 10 10 11 11 12 12 12 12 13 13 13 13 14 14 14 15 15 16 16 16 17 17
8 8 8 8 8 8 8 8 9 9 9 9 9 9 10 10 10 10 10 10 10 11 11 11 11 11 11 12 12 13 13 14 14 15 15 15 14 15 15 15 15 15 15 15 14 14 14 14 14 14 14 14 14 13 13 12 12 11 11 10 10 10 10 10 10 10 10 10 11 11 11 11 11 12 12 12 13 13 13 14 14 14 14 15 16
8 8 8 7 7 8 8 8 8 8 9 9 9 9 9 9 9 9 9 10 10 10 11 11 11 10 10 11 11 11 12 12 13 13 14 14 14 14 15 15 15 15 15 14 14 14 14 13 14 13 13 13 13 13 12 12 11 10 10 10 9 9 9 9 9 9 9 10 10 10 10 10 10 11 11 11 11 11 11 11 12 12 13 13 14
7 7 7 7 7 7 7 7 7 8 8 8 8 8 8 8 9 9 9 9 10 10 10 10 10 10 10 10 11 11 10 10 11 12 13 13 14 14 14 14 15 15 14 14 13 13 13 13 13 13 13 12 12 12 11 11 10 10 9 9 8 8 8 8 9 9 9 9 9 9 9 9 9 9 9 9 9 10 10 10 10 11 12 12 13
6 6 6 6 6 6 6 6 7 7 7 7 7 8 8 8 8 9 9 9 9 9 9 10 10 9 10 10 10 10 10 10 11 12 12 13 13 13 14 14 14 14 14 13 12 12 12 12 12 12 12 11 11 11 10 10 9 9 8 8 8 8 8 8 8 8 8 8 8 8 8 8 8 8 8 9 9 9 9 9 9 10 10 11 12
6 6 6 5 5 6 6 6 6 6 6 7 7 7 8 8 8 9 9 9 9 9 9 9 9 9 9 9 10 10 10 10 10 11 12 12 13 13 13 13 13 13 12 12 11 11 11 11 11 11 11 11 10 10 10 9 8 8 8 7 7 7 7 7 7 8 8 8 8 7 7 7 7 7 7 8 8 8 9 9 9 9 10 10 11
6 5 5 5 5 5 6 6 6 6 6 7 7 7 8 8 8 8 8 8 8 8 8 9 9 9 9 9 9 9 10 10 10 11 11 12 12 12 12 12 12 12 11 11 11 11 10 10 10 10 10 10 10 9 9 9 8 8 7 7 7 6 6 7 7 7 7 7 7 7 7 6 6 6 6 7 7 7 8 8 8 9 9 10 10
5 5 5 5 5 6 6 6 6 6 7 7 7 7 8 8 7 7 7 7 7 8 8 8 8 8 8 8 9 9 9 9 10 10 10 11 11 11 11 11 11 11 11 10 10 10 10 10 9 9 9 9 9 9 9 8 8 7 7 6 6 6 6 6 6 6 6 6 6 6 6 6 6 6 6 6 6 6 7 7 8 8 9 9 10
5 5 5 5 6 6 6 6 6 6 7 6 6 6 6 7 7 7 7 7 7 7 7 7 7 7 7 8 8 8 9 9 9 9 9 10 10 10 10 10 10 10 10 10 9 9 9 9 8 8 8 8 8 8 8 8 7 7 7 6 6 5 5 5 5 5 5 5 5 5 5 5 5 5 5 6 5 6 6 7 7 8 8 9 9
4 4 5 5 5 5 6 6 6 6 6 5 5 5 5 6 6 6 6 6 6 6 6 6 6 6 7 7 7 7 8 8 8 8 9 9 9 9 9 9 9 9 9 9 8 8 8 8 7 7 7 7 7 7 7 7 7 7 6 6 5 5 5 5 5 4 4 4 4 4 4 5 5 5 5 5 5 5 6 6 7 7 8 8 8
3 4 4 4 4 5 5 5 5 5 5 4 4 4 5 5 5 5 5 5 5 5 5 5 6 6 6 6 7 7 7 7 7 8 8 8 8 8 8 8 8 8 8 8 8 7 7 7 7 7 6 6 6 6 7 7 7 6 6 6 5 5 5 5 5 4 4 4 4 4 4 4 4 5 5 5 5 5 6 6 6 7 7 8 8
3 3 3 4 4 4 4 4 4 4 3 3 3 4 4 4 4 4 4 4 4 4 4 4 5 5 5 6 6 6 6 6 7 7 7 7 7 7 7 7 7 7 7 7 7 7 6 6 6 6 6 6 6 6 6 6 6 6 6 6 5 5 5 4 4 4 5 5 5 5 5 5 5 5 6 6 6 6 6 6 7 7 8 8 8
2 2 2 3 3 2 2 2 2 2 2 2 3 3 3 3 3 3 3 3 3 3 4 4 4 5 5 5 5 6 6 6 6 6 6 6 6 6 6 6 6 6 6 6 6 6 6 6 5 5 5 5 5 5 5 5 5 6 6 6 5 5 4 4 4 4 4 5 5 5 5 5 6 6 6 6 6 6 6 7 7 7 8 8 8
2 2 2 2 2 2 1 2 1 1 2 2 2 2 2 2 2 2 2 2 2 3 3 4 4 4 4 4 4 5 5 5 5 5 5 5 6 6 6 6 5 5 5 5 5 5 5 5 5 4 4 4 4 4 4 4 4 4 5 5 5 5 5 5 5 5 5 5 5 5 5 5 6 6 6 6 6 6 6 7 7 7 8 8 9
2 2 2 1 1 1 1 1 1 1 1 1 2 2 1 1 1 1 1 2 2 2 3 3 3 3 3 3 4 4 4 5 5 5 5 5 5 5 5 5 5 5 5 4 4 4 4 4 4 4 4 3 3 3 3 4 4 4 4 4 5 5 5 5 5 5 5 5 5 5 5 5 5 5 6 6 6 6 6 6 7 7 8 8 9
Height
831 833 835 837 838 840 842 844 845 847 849 850 852 853 855 856 857 859 860 862 863 864 865 867 868 869 870 871 871 872 873 874 874 875 875 876 876 877 878 878 878 878 878 878 877 878 878 878 878 878 878 879 879 879 879 880 880 879 879 879 879 879 879 878 878 877 876 876 875 874 874 873 872 872 871 870 869 868 867 867 866 865 864 863 862
829 831 833 835 837 838 841 843 844 846 847 849 850 851 853 854 856 857 858 860 861 862 864 865 866 867 868 869 870 871 872 872 873 874 874 875 875 876 877 877 877 877 877 877 877 877 877 877 877 877 877 877 877 878 878 878 878 878 878 878 878 878 877 877 877 876 875 874 874 873 872 872 871 871 870 869 868 867 866 865 864 864 863 862 860
828 830 832 834 835 837 839 841 843 845 846 847 849 850 852 853 854 855 856 858 859 861 862 863 864 866 867 868 869 870 871 871 872 872 873 873 874 874 875 876 876 876 876 876 876 876 876 876 876 876 876 876 876 876 877 877 877 877 877 876 876 876 876 876 875 875 874 873 872 872 871 871 870 869 869 868 867 866 865 864 863 862 862 860 859
828 830 832 833 835 836 838 840 842 844 845 846 847 849 850 852 853 854 855 857 858 859 861 862 863 864 865 866 867 868 869 870 871 871 871 872 872 873 874 874 875 875 875 875 876 876 875 875 875 875 875 875 875 875 875 875 875 875 875 875 875 875 875 874 874 874 873 872 871 870 870 869 868 868 867 866 866 865 864 863 862 861 860 859 858
830 831 832 833 835 836 837 839 840 842 843 844 846 847 849 851 852 853 854 855 857 858 859 860 861 862 863 864 866 867 867 868 869 869 870 871 871 871 872 872 873 874 874 874 875 875 875 874 874 874 874 874 874 874 874 874 874 874 874 874 874 874 873 873 873 872 871 870 869 869 868 868 867 866 866 865 864 863 863 862 861 860 859 858 857
830 832 834 834 835 835 836 837 838 840 841 843 844 846 848 849 851 852 853 854 856 857 858 859 860 861 862 863 864 865 866 867 867 868 868 869 869 870 870 871 871 871 872 873 873 873 873 873 873 873 873 873 872 873 873 873 873 873 873 873 873 873 872 872 871 871 870 869 868 867 867 866 865 865 865 864 863 862 861 860 859 859 858 856 855
828 830 833 834 835 836 835 836 837 838 840 842 843 845 847 848 849 851 852 853 854 856 857 858 859 860 861 861 862 864 864 865 866 866 867 867 867 868 868 869 869 869 870 870 871 872 872 872 872 871 871 871 871 871 871 871 871 871 871 871 871 871 871 870 870 869 869 868 867 866 865 865 864 863 863 863 862 861 861 859 858 857 856 855 854
824 826 829 831 834 834 834 835 835 837 839 840 842 844 845 847 848 850 851 852 853 854 855 857 858 859 859 860 861 862 862 863 864 864 865 865 866 866 866 867 867 867 867 868 868 869 869 870 870 870 869 869 869 869 869 869 868 868 868 869 869 869 869 869 868 868 867 867 866 865 864 863 863 862 862 861 861 860 860 859 857 856 855 854 853
823 825 826 828 829 831 833 833 834 836 837 839 841 843 844 845 846 848 849 850 852 853 854 855 856 857 858 858 859 860 860 861 862 863 863 864 864 864 864 864 865 865 865 866 866 866 867 867 867 867 867 867 867 867 867 867 867 866 866 867 867 867 866 866 866 866 866 865 864 864 864 862 861 861 860 860 859 859 858 858 856 855 854 853 852
824 825 826 826 827 829 831 832 832 833 835 837 839 841 843 844 845 846 847 848 850 851 852 853 854 855 855 856 857 857 858 858 859 860 861 862 862 862 862 862 862 863 863 863 864 864 864 864 865 865 865 865 865 865 865 865 865 865 865 865 865 865 865 864 864 864 864 864 863 863 863 861 860 860 859 858 858 857 856 856 854 853 852 851 849
822 824 825 825 826 827 828 829 829 830 832 834 836 838 841 842 844 845 845 846 847 848 849 851 852 852 853 854 854 855 855 856 857 858 859 860 860 860 860 860 860 860 861 861 861 861 861 862 862 862 863 863 863 863 863 863 863 863 863 863 863 863 863 863 862 862 862 862 861 861 861 860 859 858 858 857 856 855 854 854 853 851 850 849 848
821 822 822 823 824 825 826 827 828 829 830 832 834 836 838 840 841 842 843 844 845 846 847 847 848 850 851 851 852 852 853 853 854 855 856 857 858 858 858 858 858 858 858 858 858 858 859 859 859 860 860 860 860 860 860 860 860 860 860 861 861 861 861 861 861 860 860 860 859 859 859 858 857 856 856 855 854 854 852 852 851 849 849 848 846
821 820 821 822 822 823 825 826 827 829 830 831 833 835 836 838 839 840 840 841 842 843 844 845 845 847 848 849 849 849 850 851 852 853 853 854 855 856 856 856 856 855 855 855 855 856 856 856 856 856 857 857 858 858 858 858 858 858 858 858 858 858 858 858 858 858 858 857 857 856 856 855 854 853 854 853 853 852 850 849 848 847 846 845 843
821 821 823 823 823 823 824 825 826 828 828 829 831 834 835 836 836 837 837 838 839 840 842 842 843 844 845 846 847 847 848 849 850 850 851 851 852 853 853 853 853 853 853 853 853 853 853 853 853 853 854 854 855 855 855 855 855 855 855 855 854 855 855 855 855 855 855 855 854 853 853 853 852 851 851 851 850 849 848 847 846 845 843 842 841
823 824 825 825 826 825 824 824 824 825 826 828 830 832 833 833 833 834 835 835 837 838 840 841 841 842 843 844 844 845 846 847 848 848 848 849 849 849 850 850 850 850 850 850 850 850 850 850 851 851 851 851 851 852 852 852 852 852 852 852 851 851 851 851 851 852 852 852 851 850 850 849 849 848 848 848 847 846 845 844 843 842 840 839 838
825 826 826 827 828 827 826 825 825 825 827 828 830 831 832 832 832 833 834 834 835 836 837 838 839 839 840 841 842 842 843 845 846 846 846 847 847 847 847 847 847 847 847 847 847 847 847 847 847 848 848 848 848 848 849 850 850 850 849 849 848 848 847 847 847 848 848 847 847 846 846 846 846 845 845 845 844 843 842 841 840 839 838 836 835
828 829 829 830 830 829 829 828 827 827 828 829 830 831 831 831 832 833 834 835 835 835 836 836 837 837 838 839 839 840 841 842 843 844 844 845 845 844 844 844 844 844 844 844 844 844 845 845 845 845 845 845 845 846 847 848 848 847 847 846 845 844 843 843 844 844 844 843 843 842 842 842 842 842 842 842 841 841 840 838 837 837 837 835 832
832 832 832 833 832 832 832 830 829 829 828 828 830 832 833 833 832 832 834 835 836 836 836 836 836 836 836 837 838 838 838 839 841 841 842 842 842 842 842 842 842 841 841 841 842 842 842 842 843 843 842 842 843 844 845 845 845 844 844 843 843 841 840 840 840 840 840 840 839 839 838 838 838 838 838 838 838 838 837 835 835 836 835 833 831
835 835 834 834 833 833 833 832 830 829 828 828 830 833 835 835 833 831 832 835 837 837 836 836 836 836 836 837 837 837 837 837 838 839 840 840 840 840 840 840 839 839 839 839 839 839 840 840 840 840 840 840 840 841 842 842 841 841 841 841 839 837 836 837 837 837 836 836 835 835 834 834 834 834 834 834 834 835 834 833 833 834 832 830 830
837 836 835 834 834 834 833 833 832 831 831 832 834 836 837 836 834 832 832 835 837 838 837 836 836 837 836 836 836 836 836 836 837 837 838 838 838 837 838 838 838 838 837 837 837 837 837 837 838 838 838 837 837 838 838 838 838 838 838 838 836 835 834 834 834 833 833 832 831 831 830 830 830 830 829 830 830 830 830 830 830 830 829 827 826
837 837 836 835 835 835 834 834 834 834 835 836 836 836 835 834 833 833 834 836 837 838 838 837 837 837 837 836 836 835 834 834 835 835 836 836 835 835 836 836 836 836 836 836 835 835 834 835 835 835 835 835 835 835 835 835 835 834 834 834 833 833 832 832 830 830 829 828 827 827 826 826 826 825 825 825 826 826 826 826 825 825 825 823 822
837 837 836 836 836 836 835 835 835 835 835 835 835 834 833 832 833 833 834 836 837 838 838 838 838 837 837 836 835 834 833 833 833 834 834 833 833 834 834 834 834 834 834 834 834 834 833 833 833 833 833 833 832 832 832 832 832 831 831 830 830 830 829 828 827 826 825 824 824 823 822 822 822 821 821 821 821 822 822 821 821 821 820 819 818
837 837 837 836 836 836 836 836 836 836 836 836 835 835 834 834 834 834 835 836 837 837 837 837 837 837 836 835 834 833 832 832 832 832 832 833 833 833 833 832 832 832 832 833 833 833 832 831 831 831 830 830 830 830 829 829 828 828 827 827 827 826 826 824 823 823 822 821 820 819 819 819 818 818 818 818 818 818 818 818 817 817 816 815 814
837 837 836 836 837 837 837 837 838 838 838 838 837 837 837 836 836 836 836 836 837 837 837 836 836 835 834 834 833 833 832 832 832 832 831 832 833 833 832 831 831 831 831 832 832 831 830 830 829 828 828 828 828 827 826 826 825 825 824 824 823 823 822 821 820 820 819 818 817 816 816 815 815 814 814 815 815 815 815 814 814 813 812 811 810
837 837 837 837 837 837 837 837 838 838 838 838 838 838 838 838 837 837 837 837 837 836 836 836 835 834 834 833 833 833 833 833 832 832 831 830 831 831 830 830 829 830 830 831 831 830 829 828 828 827 826 826 825 825 824 823 823 822 822 821 821 820 819 818 818 817 816 815 814 814 813 812 812 811 811 812 812 811 811 811 810 809 809 808 806
839 839 838 838 838 837 837 837 837 837 838 838 838 839 838 838 838 838 837 837 837 837 836 835 835 834 834 833 833 833 833 833 833 832 832 831 830 829 829 829 830 830 830 830 830 829 828 827 826 825 824 824 823 822 821 821 820 820 819 819 818 817 816 816 815 814 813 812 812 811 809 809 809 809 809 809 808 808 808 807 806 805 805 804 802
841 841 840 840 839 839 838 838 838 837 837 837 837 838 838 838 838 837 837 837 837 836 836 835 834 834 834 834 834 833 833 833 832 832 831 831 830 829 829 829 830 829 829 829 828 827 826 826 825 823 822 821 821 820 819 818 818 817 816 816 815 814 814 813 813 812 811 810 809 808 807 807 806 806 806 805 805 805 805 804 803 802 802 801 799
842 842 842 841 841 840 840 839 839 838 838 837 837 837 837 837 837 837 837 836 836 836 836 835 834 834 833 833 833 832 832 831 831 831 830 830 829 828 828 828 828 827 827 827 826 825 824 824 823 821 820 820 819 818 818 817 816 815 814 814 813 812 811 810 810 810 809 809 807 805 805 804 804 803 803 802 802 802 802 802 801 799 799 799 797
842 842 842 842 842 841 841 840 840 839 839 838 838 838 838 837 838 838 838 838 837 836 836 835 835 834 833 833 832 832 831 831 830 830 830 829 828 827 827 826 826 826 825 825 824 823 822 822 821 821 820 819 818 818 817 816 815 814 814 813 812 810 809 808 808 808 808 807 806 804 803 802 801 801 801 800 799 799 800 799 798 797 796 795 794
843 843 842 842 842 842 841 841 841 840 840 839 838 838 838 838 838 837 837 838 838 837 836 835 835 834 833 832 832 832 831 831 830 830 829 829 828 827 826 825 825 825 824 824 823 822 822 821 821 821 820 819 818 818 818 816 815 814 813 812 811 809 808 808 808 807 806 806 804 803 802 801 800 799 798 797 797 796 797 796 795 794 793 792 791
843 843 843 843 843 842 842 842 841 840 840 839 838 837 836 836 836 836 836 836 836 836 835 835 834 833 832 832 831 831 831 830 830 829 828 828 827 826 825 825 824 824 823 823 822 822 822 821 821 821 820 819 819 818 818 816 814 813 812 811 810 809 808 807 807 806 805 804 803 802 801 799 798 797 796 795 794 794 794 793 792 792 790 789 788
843 843 843 843 843 843 843 842 842 841 840 840 839 838 836 835 834 834 834 833 833 833 833 833 833 832 832 831 830 830 830 829 829 828 827 826 825 824 824 824 823 823 823 822 822 822 822 822 821 821 820 819 819 818 816 815 814 813 812 810 809 808 807 807 806 805 804 803 802 801 800 799 797 796 795 794 793 792 791 790 790 789 788 787 786
844 843 843 843 843 843 843 842 842 841 841 840 839 838 838 836 835 834 833 832 831 831 831 831 831 830 830 830 829 829 828 828 827 827 826 825 824 823 822 823 822 822 822 822 822 822 822 821 821 820 820 819 818 817 815 814 813 812 811 810 809 807 806 806 805 804 803 802 801 800 799 798 797 795 794 793 792 791 789 788 787 787 786 785 784
844 844 844 843 843 843 842 842 841 841 840 840 839 838 838 837 836 835 834 832 831 830 829 829 829 828 828 828 828 828 827 827 826 825 825 824 824 823 822 822 822 822 822 822 821 821 821 821 821 820 819 818 817 816 815 814 812 811 810 809 808 806 805 804 804 803 802 801 800 799 798 797 796 795 794 792 791 790 788 787 786 785 784 783 782
844 844 844 843 843 842 842 841 841 840 839 839 838 837 837 836 835 835 834 833 832 831 829 828 827 827 827 827 827 826 826 825 825 824 824 824 823 823 822 822 822 822 822 821 821 821 821 820 820 819 818 817 816 815 814 813 812 811 809 808 807 805 804 803 802 802 801 800 799 798 797 797 796 795 793 791 790 789 788 786 785 784 783 782 780
843 843 843 843 843 842 842 841 840 840 839 838 837 836 835 834 834 833 833 832 832 831 830 829 827 826 826 826 826 825 824 824 824 823 823 823 823 822 822 822 821 821 821 821 820 820 820 819 818 817 817 816 815 814 813 812 811 810 809 808 806 805 804 803 802 801 799 799 798 797 796 795 794 793 792 790 789 788 787 786 784 783 782 781 779
843 843 843 843 842 842 842 841 840 839 839 837 837 836 835 834 833 833 832 832 831 830 830 829 828 827 826 825 825 824 823 823 822 822 822 822 822 821 821 821 820 820 820 819 819 819 818 818 817 816 816 815 814 813 812 811 810 809 808 807 806 804 803 802 801 800 798 797 796 795 795 794 793 792 791 789 788 787 786 784 783 781 780 779 778
842 842 841 842 841 841 841 840 839 839 838 837 836 836 835 834 834 833 833 832 831 831 830 829 828 828 826 825 825 823 822 821 821 820 820 820 820 820 819 819 819 818 818 818 817 817 816 816 815 815 814 813 813 812 811 810 809 808 807 805 804 803 802 801 800 799 797 796 795 795 794 793 792 791 790 789 787 786 785 783 782 780 778 777 776
841 841 841 840 840 839 839 839 838 838 837 837 836 836 835 835 834 834 833 832 832 831 830 829 829 828 827 826 825 823 822 821 820 819 818 818 818 818 817 817 817 816 816 816 815 815 815 814 814 813 813 812 812 811 810 809 808 807 806 804 803 802 801 800 799 798 797 796 795 793 793 792 791 790 789 788 787 785 784 782 781 780 777 775 774
840 840 839 839 838 838 838 837 837 836 836 836 836 835 835 835 834 833 833 832 831 831 830 829 829 828 826 825 824 823 822 821 819 818 817 816 816 815 815 815 815 814 814 814 813 813 813 813 812 812 811 811 810 810 809 808 807 806 805 804 802 801 800 799 798 797 796 795 793 792 791 790 789 788 787 786 785 784 782 780 779 778 776 773 771
839 838 838 838 837 837 836 835 835 835 834 834 834 833 833 833 832 832 832 831 831 830 829 828 828 827 826 824 824 823 822 821 819 817 816 815 814 813 813 813 813 812 812 812 812 812 812 811 811 810 810 809 809 808 807 806 805 804 803 802 801 800 799 798 797 796 794 793 792 790 789 788 786 785 783 782 781 780 779 777 775 774 773 771 769
838 837 836 836 836 835 835 834 834 833 833 832 831 831 831 831 831 831 830 830 829 829 828 827 826 825 824 823 822 821 820 819 817 816 814 813 812 811 811 811 811 811 811 811 810 810 810 810 810 809 809 808 807 806 805 805 804 803 802 801 800 799 798 797 795 794 793 791 790 789 787 785 784 782 780 779 778 776 775 773 772 771 769 768 766
837 836 836 835 834 834 834 833 833 832 831 831 830 830 830 830 830 830 829 829 828 828 827 826 825 823 822 821 820 819 817 816 815 813 812 811 810 809 808 809 809 809 809 809 809 809 809 808 808 808 807 807 806 805 804 803 802 801 800 799 798 797 796 795 794 793 791 790 788 786 785 783 781 779 778 776 774 773 771 770 768 767 766 764 763
835 835 835 834 833 833 833 832 832 831 831 830 830 829 829 829 829 829 829 828 827 826 826 824 823 822 821 820 818 817 816 814 812 811 810 809 808 807 807 807 807 807 808 807 807 807 807 807 806 806 805 805 804 803 802 801 800 800 799 798 797 796 795 794 792 791 790 788 786 784 783 781 779 777 775 773 771 769 768 766 765 763 762 761 759
834 834 834 833 833 832 832 831 831 831 830 830 830 829 829 829 829 828 828 827 827 826 825 823 822 821 820 819 818 816 815 813 812 810 809 808 807 807 806 806 806 806 806 806 806 806 805 805 804 804 803 802 802 801 800 799 798 798 797 796 795 794 792 791 790 789 787 786 784 782 781 779 777 775 773 771 769 767 765 763 762 760 758 757 756
833 833 833 833 832 832 832 831 831 831 830 830 830 829 829 828 828 828 827 826 826 825 824 823 822 821 820 818 817 816 814 813 812 810 809 808 808 807 807 806 806 805 805 805 805 804 803 803 802 801 801 800 799 798 797 796 796 795 794 794 793 791 790 789 787 786 784 783 781 780 778 776 774 772 770 768 766 764 762 760 758 756 755 753 751
832 832 832 832 832 832 832 831 831 830 830 830 830 829 828 828 827 827 826 826 826 825 824 823 822 821 819 818 817 815 814 813 812 810 809 808 807 807 806 805 805 804 804 803 803 802 802 801 800 799 798 797 796 795 795 794 793 792 791 790 789 788 787 786 784 783 781 780 778 776 775 773 770 768 767 765 763 760 758 756 754 752 750 749 747
831 831 832 832 832 832 831 831 831 830 830 830 829 829 828 827 827 826 826 826 825 824 823 822 821 820 818 817 816 814 813 812 811 810 809 808 807 806 805 804 803 803 802 802 801 801 800 799 798 797 796 795 794 793 792 791 790 789 787 786 785 784 783 782 781 779 778 776 775 773 771 769 767 765 763 761 759 757 754 752 750 748 746 744 742
831 831 831 831 831 831 831 831 830 830 830 829 829 828 827 827 827 826 826 825 824 823 822 821 820 819 817 816 814 813 812 810 809 808 807 806 806 805 804 803 803 802 801 800 800 799 798 797 796 795 794 793 792 791 789 788 787 785 784 782 781 780 779 778 777 776 774 773 771 769 767 765 763 761 759 756 755 753 750 747 745 743 741 739 737
831 831 831 831 831 831 831 830 830 830 829 829 828 828 827 827 826 826 825 824 823 822 821 820 819 818 816 815 813 812 810 809 808 807 806 805 804 803 802 802 801 800 800 799 798 797 797 795 794 793 792 791 789 788 787 785 784 782 780 779 777 776 775 774 772 771 770 769 767 765 763 761 759 757 754 752 750 748 745 743 741 739 737 735 733
831 831 832 831 831 831 830 830 829 829 829 828 828 827 827 826 825 825 824 823 822 821 820 819 818 817 816 814 813 811 809 808 807 806 804 804 802 801 801 800 799 798 798 797 796 795 794 793 792 791 789 788 787 785 784 782 780 779 777 775 774 772 771 770 768 767 766 765 763 761 759 757 755 752 750 748 746 743 741 739 737 735 733 731 729
Wind_Speed
28 29 28 27 26 27 27 26 23 22 20 19 19 19 17 16 16 15 14 14 13 13 13 13 13 13 13 14 13 13 13 13 13 13 13 13 13 13 13 13 14 13 12 11 10 10 10 9 9 8 8 8 8 7 7 6 6 6 5 5 5 5 5 5 6 9 12 13 13 13 12 12 12 12 13 13 13 13 13 12 12 12 13 13 14
28 29 29 28 27 27 27 26 25 23 22 21 20 20 19 17 16 16 15 14 14 14 14 13 13 13 14 15 15 14 14 14 15 15 15 15 14 14 14 15 15 15 14 14 12 11 12 12 11 10 10 10 9 9 8 7 7 8 7 7 7 7 7 7 6 8 11 13 13 13 12 13 14 13 14 14 15 15 15 14 13 13 14 14 14
28 28 27 28 28 27 26 26 25 24 23 23 22 22 20 18 17 17 17 16 15 15 15 15 14 14 14 15 16 16 16 16 16 16 16 16 15 15 14 15 15 15 15 15 14 13 13 14 12 11 10 11 11 10 9 9 9 9 9 8 9 9 8 9 8 8 10 12 12 13 12 13 14 14 14 15 15 16 17 16 15 15 15 15 14
24 25 26 26 27 26 25 25 25 25 25 24 24 23 22 20 19 18 17 17 17 16 16 16 16 16 16 16 16 17 17 17 16 16 16 16 16 15 14 15 15 16 16 15 15 14 14 14 13 11 11 11 11 11 11 11 10 10 10 10 10 9 9 9 10 10 11 12 13 14 13 13 15 15 15 16 16 16 17 17 17 16 15 15 15
19 21 23 24 25 25 25 25 25 25 26 25 25 25 24 21 20 19 18 18 18 18 17 17 17 17 17 17 17 17 17 18 17 17 17 17 17 16 15 15 16 16 16 16 16 15 15 15 14 13 12 13 12 11 11 11 11 11 12 11 11 10 10 10 11 11 12 13 15 16 15 16 17 17 16 16 17 18 18 17 17 16 16 16 17
16 17 20 22 24 24 24 25 25 26 26 25 25 25 25 24 22 21 20 19 19 19 19 18 18 18 18 18 18 18 18 18 18 18 18 19 19 18 18 17 17 17 17 17 17 17 16 16 16 15 15 15 13 12 12 12 12 13 13 13 12 12 12 12 12 13 13 14 16 17 18 18 19 20 18 17 18 20 20 19 18 18 18 18 19
17 18 18 19 20 22 24 24 25 24 24 24 24 24 24 24 24 22 21 20 20 20 20 20 21 20 20 20 20 20 20 20 21 20 20 20 21 20 20 19 18 17 17 17 18 18 18 17 17 16 16 15 14 13 13 12 13 13 13 13 13 14 14 14 15 15 15 15 16 17 19 19 20 21 20 19 20 20 19 18 19 21 20 20 22
19 20 19 18 19 22 24 24 23 22 22 23 23 23 23 23 23 23 22 22 22 22 22 22 23 23 23 22 21 21 21 22 23 22 22 21 22 22 21 21 20 19 19 18 18 19 19 19 19 18 17 16 16 15 14 14 14 14 14 14 14 16 17 17 17 17 17 17 18 19 19 20 21 22 22 22 21 20 17 16 19 23 22 21 23
18 19 18 20 22 22 20 20 20 19 19 21 22 22 23 22 22 21 21 21 22 22 22 22 23 24 25 24 23 23 23 24 24 24 24 23 23 23 23 23 22 21 20 20 20 20 21 21 21 20 19 18 17 17 16 15 16 17 17 16 16 17 18 19 19 19 18 18 19 20 19 21 22 22 22 23 22 21 20 18 20 24 23 22 24
15 14 14 17 20 17 14 16 20 19 17 18 19 20 21 20 20 19 18 18 18 19 21 22 23 24 25 25 25 24 24 25 25 25 25 25 25 25 25 25 24 24 23 22 22 22 22 23 23 22 22 21 20 20 19 18 18 19 19 19 19 19 20 20 20 20 19 18 20 20 18 21 24 23 23 25 25 24 24 22 22 23 23 22 24
13 14 14 15 17 15 14 17 20 19 17 17 17 18 18 17 17 16 16 16 15 15 16 17 20 23 24 25 26 26 26 25 25 25 25 25 26 26 27 27 26 26 26 25 25 25 24 24 24 24 24 24 23 22 21 20 20 19 20 20 20 20 21 21 22 21 19 19 20 21 19 21 26 26 25 27 27 26 26 24 22 23 21 17 18
6 8 11 15 17 16 16 16 16 16 16 17 17 17 16 16 16 17 17 16 17 17 16 15 15 17 20 23 24 25 26 26 25 25 26 25 26 27 28 28 28 28 28 27 28 27 27 26 26 26 25 25 25 25 24 23 22 22 22 21 21 21 22 22 23 23 22 22 22 23 23 23 26 28 27 26 26 26 26 25 24 23 22 19 18
15 13 10 7 10 13 12 10 9 10 12 13 12 12 13 14 16 18 19 19 20 21 21 20 17 15 17 20 21 22 24 24 24 24 24 25 25 26 27 28 29 29 29 29 29 29 28 28 28 28 27 26 26 25 25 25 24 24 23 23 23 23 22 23 24 24 25 25 25 25 26 26 26 27 27 26 26 25 26 26 26 25 24 23 24
23 22 20 17 13 10 9 8 6 3 2 5 6 7 9 11 13 16 18 20 22 23 24 23 21 19 20 22 22 22 23 23 23 22 23 23 23 24 25 27 28 29 29 29 29 29 29 29 29 29 29 28 27 27 26 26 25 25 25 24 24 24 23 24 24 25 26 27 27 28 28 28 28 29 29 27 27 26 26 27 27 27 27 27 28
25 23 22 22 21 19 17 16 14 12 10 7 7 6 6 8 11 12 12 14 16 18 19 19 19 19 20 21 21 22 23 22 22 22 22 22 22 23 24 25 27 28 29 29 29 29 29 29 30 29 29 29 29 28 28 27 26 26 26 26 26 26 26 25 25 25 26 26 28 30 30 29 30 30 29 28 27 28 27 27 28 28 29 29 30
26 26 25 23 21 20 20 20 19 17 15 12 10 7 4 1 4 6 7 8 9 11 14 15 16 17 17 17 17 18 19 19 20 21 21 20 19 20 22 24 26 27 28 28 28 29 29 29 30 30 30 29 28 29 29 28 26 26 27 28 28 29 29 29 27 27 27 27 28 29 30 30 30 30 30 29 29 29 28 27 28 27 27 26 27
26 26 25 24 23 22 21 21 21 19 17 14 11 7 7 8 7 3 1 4 6 9 11 12 13 13 14 14 14 15 15 15 16 18 18 18 18 18 19 21 23 25 27 27 28 29 29 30 30 30 31 30 29 29 29 27 25 26 27 29 29 31 32 32 31 30 29 29 29 29 29 30 29 30 30 30 30 29 27 28 28 27 24 20 21
25 24 23 22 22 22 22 22 20 18 16 14 10 6 5 7 9 8 6 4 2 3 6 8 8 8 8 9 10 11 12 13 13 15 15 15 16 17 17 18 20 22 23 24 25 26 27 28 29 29 30 31 31 30 28 26 26 27 27 28 29 31 33 33 32 31 30 29 29 29 30 30 30 30 29 29 28 26 26 28 29 26 23 20 21
23 23 22 20 20 20 21 21 20 19 17 13 9 4 2 3 5 6 6 6 6 5 4 5 5 5 5 7 7 8 9 8 9 11 12 13 14 15 16 17 17 18 19 20 20 21 22 22 23 24 26 26 26 26 25 25 26 27 27 26 27 31 33 32 30 30 29 29 30 30 30 31 30 30 29 27 25 24 26 28 28 25 25 26 26
21 20 20 19 19 19 20 20 20 20 19 15 11 5 2 1 3 5 5 4 6 6 6 5 5 5 4 5 6 6 6 6 6 7 8 9 11 13 14 15 16 17 17 17 18 18 18 19 18 18 19 19 20 20 20 20 21 23 24 24 27 30 31 30 29 29 29 29 30 30 31 31 30 30 28 27 26 26 28 28 27 26 26 28 30
18 18 18 18 19 19 20 20 20 20 18 17 15 12 8 6 5 5 5 4 4 5 5 5 4 4 4 4 3 3 4 4 5 7 6 6 7 9 10 12 13 15 15 16 16 17 18 18 17 17 17 17 17 18 18 18 19 21 22 23 25 27 27 27 27 27 28 29 30 30 31 30 30 29 29 29 29 30 30 29 28 27 26 27 29
17 17 17 18 18 18 19 18 18 18 17 17 17 17 15 13 11 9 8 7 6 5 5 6 8 10 10 11 11 10 8 6 6 6 6 4 3 3 5 6 8 10 13 15 16 17 18 18 18 18 18 18 19 19 19 19 20 21 23 23 25 25 25 25 26 26 27 29 30 30 30 29 29 30 30 32 32 31 30 29 28 26 25 26 27
16 16 17 17 17 17 18 17 17 17 17 16 17 18 17 16 15 14 13 11 10 9 8 9 10 11 12 12 13 13 11 10 10 9 7 6 3 2 5 6 5 6 8 11 13 14 16 17 17 17 18 17 17 17 17 18 19 20 21 21 22 24 24 25 25 25 26 26 27 28 29 29 30 31 32 32 32 31 29 27 25 24 24 26 26
15 16 16 16 16 17 17 17 16 16 16 15 15 17 17 16 16 15 15 15 14 14 13 11 11 12 12 12 12 12 11 10 10 12 11 9 5 3 5 8 9 7 8 9 10 11 11 12 12 12 12 12 13 14 15 16 16 17 17 16 17 19 22 24 25 24 24 24 23 24 26 27 28 29 29 29 28 27 26 25 24 25 25 26 27
14 15 15 15 15 15 16 16 16 16 16 16 15 16 16 15 15 15 14 14 14 14 14 14 14 14 14 13 12 12 11 10 9 11 12 11 8 6 6 8 11 10 9 10 11 11 10 9 9 10 11 12 13 15 16 16 16 17 16 15 16 17 18 21 23 24 25 26 24 23 24 25 25 25 25 24 25 25 25 25 25 26 25 26 27
13 14 14 14 15 15 15 16 16 15 16 16 16 16 15 15 15 14 14 14 14 14 14 14 14 14 14 14 13 12 12 11 9 9 10 11 10 7 7 7 9 10 10 10 11 12 12 12 12 13 14 14 15 16 16 16 16 16 16 15 15 16 17 18 20 22 25 25 25 26 27 26 25 24 24 24 25 26 25 24 25 25 24 24 26
13 13 13 13 14 15 15 15 15 16 16 16 15 15 15 14 15 15 15 15 15 15 15 14 14 14 13 12 12 13 13 12 11 11 10 10 10 9 7 6 7 9 10 10 10 10 11 12 12 12 12 12 12 12 13 13 13 13 13 13 13 14 15 16 18 20 21 21 22 25 26 25 24 24 24 24 25 24 23 23 23 23 22 21 22
11 12 12 12 13 13 13 13 14 14 15 15 15 15 16 15 14 14 15 15 16 16 15 15 14 14 12 11 11 13 14 14 14 14 13 13 12 12 11 9 7 9 11 11 10 10 10 9 9 9 9 9 9 9 10 10 10 11 11 11 11 12 13 14 17 19 20 20 22 24 24 22 21 22 22 22 22 22 22 21 22 23 22 19 17
11 11 12 12 13 13 12 11 12 12 13 13 14 14 14 14 14 12 11 11 12 13 13 13 13 12 10 9 10 12 14 15 15 15 15 14 13 12 12 11 9 9 10 10 9 8 8 8 9 10 11 11 11 11 12 12 13 14 13 12 13 14 14 13 15 17 19 20 21 22 20 18 19 19 19 19 20 22 21 21 21 22 20 17 16
11 12 12 12 13 13 12 11 11 11 12 12 13 13 12 11 12 12 11 9 8 8 9 10 11 11 9 8 8 11 13 13 14 14 15 14 13 12 12 12 11 9 8 7 7 6 7 7 8 9 10 12 13 13 14 14 15 16 15 15 15 15 14 14 15 17 18 19 19 19 18 16 16 16 16 16 18 19 20 21 22 21 19 16 16
12 12 12 11 11 12 12 12 11 11 11 12 12 14 14 13 11 11 11 10 8 6 6 7 8 9 10 9 8 9 10 11 12 14 15 14 13 12 12 11 10 7 6 5 5 5 6 6 6 8 10 11 11 12 14 15 16 16 16 16 15 15 15 15 16 17 16 16 17 17 17 17 18 18 19 20 20 19 19 21 22 21 20 19 18
12 12 10 10 9 10 10 10 11 11 11 11 12 13 15 15 14 13 13 12 10 8 6 6 6 7 9 10 10 10 10 11 13 14 16 15 14 12 10 8 6 4 3 3 4 5 5 6 7 9 11 11 12 14 15 15 14 16 18 18 16 16 16 17 18 18 18 18 19 18 17 18 19 19 19 20 20 20 20 21 21 20 20 20 20
11 11 9 8 8 8 9 9 10 10 10 11 12 12 12 11 12 14 15 14 13 10 7 5 6 7 7 8 11 12 11 12 13 14 15 16 14 10 6 3 2 1 2 3 4 5 5 6 8 11 13 14 15 17 17 16 15 16 17 17 17 17 18 19 20 20 21 22 21 20 19 20 21 20 19 19 19 18 18 19 20 19 18 18 19
10 10 8 8 8 9 9 9 10 10 10 10 10 10 9 8 9 11 13 15 16 14 11 8 8 8 7 7 9 11 12 12 13 14 14 14 12 9 3 1 1 0 2 3 4 5 5 7 10 12 14 16 16 17 18 18 18 17 15 15 16 17 19 21 21 20 21 22 21 19 19 21 21 20 20 21 21 20 20 19 19 18 17 18 18
8 8 8 8 8 9 9 10 11 11 11 10 10 9 8 8 9 9 10 12 13 14 15 15 13 11 10 9 11 13 12 12 12 13 13 11 9 7 5 3 1 1 2 3 5 5 6 9 11 13 15 16 17 18 18 18 18 17 15 14 16 18 20 21 20 19 21 21 20 20 20 20 20 20 21 21 21 21 21 21 20 20 19 20 20
6 7 7 7 8 8 9 10 11 11 10 10 10 9 8 8 8 8 10 12 12 12 14 15 15 13 10 10 11 13 14 13 12 12 12 10 8 6 5 4 3 2 2 3 4 5 7 9 11 13 15 16 17 18 18 18 18 17 15 15 16 17 18 18 18 20 21 20 20 20 21 20 20 20 21 22 21 21 20 20 20 20 20 20 21
6 6 7 8 7 7 7 9 10 10 10 9 9 9 8 7 7 7 10 12 12 12 12 14 14 14 13 12 13 15 15 15 13 11 11 9 8 6 5 5 5 4 4 4 5 6 7 9 11 13 15 16 17 17 18 18 18 17 16 17 17 17 17 18 19 20 19 18 18 18 18 19 20 20 20 21 21 20 20 20 20 21 21 20 21
6 7 7 7 7 7 8 8 8 8 9 9 8 8 7 7 7 8 10 11 11 11 12 12 12 13 16 17 18 18 18 16 14 12 11 10 9 9 9 8 7 7 7 7 6 7 7 9 11 12 14 15 16 17 18 18 18 17 18 19 19 18 17 18 19 18 16 16 16 16 16 18 18 18 19 19 20 20 20 20 21 22 23 22 21
7 7 7 7 7 8 9 9 8 8 8 7 6 6 7 8 8 9 10 10 9 9 10 10 11 14 18 20 20 21 21 18 16 15 14 12 11 12 14 13 11 10 10 9 8 8 8 8 10 11 13 14 15 16 17 17 17 17 18 18 18 18 17 16 16 16 15 14 15 16 17 17 17 17 18 19 19 20 21 22 22 22 22 23 22
8 8 7 7 8 10 10 9 8 8 8 7 7 7 8 9 10 9 9 9 9 9 10 10 11 15 18 19 19 20 21 19 18 18 17 15 13 13 15 15 15 14 13 10 8 7 8 9 10 11 12 13 14 15 16 17 16 15 15 15 15 16 16 15 15 16 16 16 16 17 18 18 18 19 21 22 22 22 24 24 24 22 22 23 23
8 9 9 10 10 11 10 9 8 8 9 9 9 10 10 10 9 8 8 9 10 10 10 10 11 13 16 17 18 19 20 20 19 18 17 16 15 14 14 16 18 17 13 8 6 6 8 9 11 12 14 15 15 16 17 17 15 13 13 14 14 14 15 16 16 16 16 16 16 17 18 18 18 19 21 23 23 23 25 26 25 23 23 23 23
10 10 11 11 11 9 8 7 8 8 9 9 9 9 10 9 8 8 9 10 10 10 11 11 12 13 15 17 18 19 20 19 19 18 18 17 17 16 16 18 18 14 9 6 6 7 8 9 11 13 14 16 16 17 18 18 15 12 12 13 14 14 16 16 16 17 17 17 17 17 18 18 18 18 19 21 21 21 22 24 23 22 22 23 23
10 10 11 10 9 7 7 8 8 8 8 8 8 8 8 8 8 9 10 11 11 11 12 13 14 14 14 15 18 20 20 18 17 17 18 18 18 16 16 16 14 10 7 7 8 9 10 11 12 14 15 16 17 17 18 18 17 15 15 15 15 15 16 16 16 18 19 19 19 18 18 18 18 17 18 20 20 21 23 23 22 20 20 22 22
9 10 10 10 8 8 9 10 9 8 8 8 8 8 8 8 9 10 11 12 12 12 12 13 13 13 14 15 17 20 20 19 17 16 17 17 16 14 11 9 9 7 7 8 9 10 12 13 14 15 16 17 17 18 18 18 18 17 17 17 17 17 17 17 17 19 20 20 20 20 19 17 17 17 18 18 19 20 21 21 20 20 20 21 21
8 9 9 9 8 8 9 9 9 9 9 9 9 9 9 10 10 10 11 11 12 12 13 14 14 15 15 15 16 17 19 19 18 16 15 13 11 8 5 5 5 6 8 10 11 12 14 15 16 17 18 18 19 19 19 19 18 18 17 18 19 20 21 21 21 21 21 21 20 20 19 19 19 18 18 18 19 20 21 20 21 21 22 22 22
7 6 6 7 7 8 8 9 9 9 9 10 10 10 10 10 11 11 11 11 11 12 14 15 16 15 15 14 14 15 16 17 17 15 14 12 10 8 8 8 9 10 11 12 13 14 15 16 16 17 18 18 19 19 19 19 19 19 19 19 19 21 22 23 23 23 22 22 22 22 22 21 21 20 21 22 23 24 25 26 27 26 25 24 25
6 5 5 6 7 8 8 8 9 9 10 10 11 11 11 11 11 10 10 11 12 12 14 14 14 14 14 13 14 14 14 15 15 15 14 14 13 13 13 13 13 13 14 14 15 15 16 17 17 17 18 18 19 19 20 20 21 21 21 21 21 21 21 22 22 23 23 23 24 25 25 24 25 26 28 29 29 29 30 32 31 29 28 27 27
8 8 7 7 7 8 8 9 9 10 10 11 11 11 10 11 11 11 11 12 13 13 14 14 14 13 14 14 14 13 13 14 15 15 15 15 14 14 14 14 15 15 15 16 16 16 16 17 17 18 18 19 20 20 21 22 22 23 23 24 24 23 21 20 21 22 23 24 25 25 26 27 29 30 31 32 31 31 33 33 32 30 30 30 29
9 9 9 8 8 9 9 9 9 10 10 10 11 11 11 11 12 12 13 13 14 14 14 13 14 14 15 15 15 14 14 14 14 15 15 14 14 14 14 14 14 14 15 16 16 16 16 17 17 18 19 19 20 21 22 23 23 24 24 25 25 24 22 21 21 22 23 24 25 26 26 28 29 30 31 32 31 32 33 34 32 32 32 30 29
9 9 9 9 9 10 10 9 9 10 10 10 11 11 12 12 13 13 14 14 14 14 13 13 14 15 16 16 16 16 15 14 13 13 13 14 14 14 14 14 14 15 15 15 15 15 16 16 17 18 19 19 20 21 22 23 23 24 24 25 25 23 22 22 22 23 23 23 25 25 26 27 29 30 32 32 32 33 34 33 32 31 30 28 26
8 8 9 9 10 11 11 11 10 10 10 11 11 12 12 13 13 13 14 14 14 14 14 14 15 15 15 15 16 16 16 14 13 13 13 14 15 15 15 16 16 16 16 16 16 17 17 17 18 18 19 20 20 21 22 23 23 24 23 23 23 22 22 22 23 23 23 23 24 26 26 27 29 30 31 31 31 31 31 29 28 28 28 28 27
Wind_Direction
213 215 218 221 222 223 223 225 225 226 228 234 237 236 235 238 240 242 244 242 242 244 246 248 252 255 255 258 261 263 259 257 258 261 264 267 269 271 272 272 270 269 266 262 259 256 255 256 252 249 253 258 261 262 258 255 256 262 270 280 290 302 304 283 265 284 307 316 317 320 324 325 329 338 340 339 340 337 334 332 328 324 324 324 323
215 217 218 221 223 224 225 226 227 228 229 233 236 235 235 238 240 241 242 242 243 246 248 251 254 256 257 260 264 266 267 265 264 264 265 265 266 266 268 269 268 269 267 263 260 257 256 258 257 254 254 256 256 256 255 253 251 257 263 268 274 282 288 289 280 280 299 315 320 318 318 317 320 327 331 331 333 333 332 332 332 331 333 334 331
217 218 219 221 223 223 224 226 228 230 231 233 234 234 235 237 240 242 243 243 245 247 251 254 255 256 260 263 265 266 268 268 266 265 263 263 264 264 265 267 267 267 267 265 263 259 257 260 259 256 256 258 257 255 255 254 251 253 259 265 268 270 276 283 285 281 289 306 317 319 320 317 316 322 326 325 326 327 328 330 333 335 339 342 340
219 219 220 222 223 223 223 225 228 230 232 234 235 234 235 237 239 242 244 245 246 249 253 256 255 255 258 262 264 264 264 265 265 264 261 260 262 262 263 266 269 270 269 268 268 265 262 261 260 258 262 265 263 260 257 255 255 255 259 264 267 269 275 281 286 286 284 291 303 311 316 314 313 317 320 319 321 323 326 330 333 337 343 345 344
221 223 224 224 223 223 223 224 227 230 233 235 235 235 235 237 239 241 243 245 247 250 253 255 254 253 254 258 262 263 264 264 264 263 262 260 261 262 262 264 268 271 273 274 273 272 269 267 267 268 271 274 274 273 269 264 263 263 264 267 269 272 279 285 290 291 285 285 295 304 308 309 309 313 315 316 319 322 327 331 334 340 345 346 345
220 227 231 229 226 225 223 224 227 229 233 236 237 238 237 238 239 240 242 245 247 249 253 256 256 255 255 258 261 263 263 263 264 264 264 263 262 263 264 265 267 269 272 275 276 276 274 272 274 275 276 279 282 284 283 279 276 274 272 273 276 278 281 286 290 292 288 288 293 298 303 306 307 310 313 314 315 319 325 330 334 340 344 344 342
216 224 231 230 228 227 224 224 227 229 232 235 238 240 240 241 241 242 243 245 247 249 252 256 259 260 261 261 262 264 264 263 264 264 264 263 262 262 264 266 266 267 269 271 274 275 274 274 274 275 276 278 281 284 286 285 282 280 277 278 281 284 287 288 290 289 288 289 291 294 299 302 303 304 308 310 310 312 317 322 326 332 338 338 336
216 218 220 219 223 228 225 223 225 227 230 233 236 239 240 240 242 245 248 249 251 253 256 259 263 265 265 265 265 266 265 265 264 263 263 262 260 260 262 265 266 267 267 267 269 270 272 272 272 272 274 275 277 279 280 282 282 279 277 278 281 285 287 288 289 288 287 287 289 292 295 296 297 299 302 304 305 307 311 311 311 318 324 327 329
218 212 210 212 217 221 220 218 219 223 227 231 235 238 239 239 240 243 248 252 255 258 260 262 264 266 267 267 267 267 266 265 265 265 264 263 261 260 260 263 265 267 268 267 267 268 270 271 270 270 272 273 275 276 275 277 278 278 277 277 278 281 283 285 286 286 287 286 287 290 292 292 295 297 298 301 302 303 306 304 302 308 313 315 320
220 213 208 215 219 216 214 216 216 220 226 230 232 235 237 238 238 239 242 247 253 258 260 263 264 266 269 270 269 267 266 267 268 269 268 266 265 263 262 263 265 266 268 269 269 270 271 272 273 273 274 275 275 276 276 276 276 278 280 279 279 281 282 283 285 286 286 285 286 289 289 290 294 296 296 299 301 301 301 300 300 304 307 307 313
228 225 217 220 223 219 221 224 220 220 227 232 234 235 235 237 239 240 240 241 244 247 252 259 263 266 268 269 270 269 267 269 270 271 272 270 267 265 264 265 266 266 267 268 270 272 273 275 276 276 276 277 277 278 279 280 280 281 282 283 284 284 283 283 284 285 284 283 285 288 284 285 292 296 296 299 302 302 301 300 298 299 299 298 301
190 205 206 217 228 228 229 234 234 234 239 242 243 244 244 245 244 243 243 243 243 241 241 245 254 264 266 266 268 269 268 270 271 272 273 272 269 267 265 266 267 267 268 268 269 272 274 276 278 278 278 278 278 279 280 281 282 281 281 282 283 283 283 282 282 283 283 281 281 284 283 283 288 294 296 299 302 303 302 300 297 294 291 287 285
82 82 99 152 206 216 220 229 237 244 249 251 253 252 251 252 251 249 248 247 246 244 242 240 241 254 266 266 266 268 269 270 271 272 273 274 272 268 266 267 267 268 269 270 271 272 273 275 278 279 281 281 280 281 281 283 285 284 283 282 279 279 278 277 278 279 281 279 276 278 283 283 283 289 296 298 297 297 296 295 295 292 288 285 285
67 65 67 74 91 122 138 134 128 136 202 229 239 247 248 248 249 249 249 250 251 250 248 244 241 251 265 266 263 265 268 269 271 271 272 274 274 270 267 267 267 268 270 271 272 273 274 275 276 280 283 284 283 283 283 285 286 287 286 285 284 283 281 278 277 276 277 277 274 277 283 284 282 288 295 294 290 289 289 290 291 291 288 287 288
63 61 61 62 69 81 89 92 90 86 88 112 147 178 215 235 238 239 243 250 255 255 252 249 249 255 264 265 264 266 267 268 269 269 270 272 274 272 269 266 265 266 267 269 271 273 274 274 274 278 282 284 285 285 285 285 285 285 286 286 287 288 287 286 284 282 280 279 277 278 282 284 285 287 292 292 289 289 289 288 287 287 287 288 290
59 57 58 59 62 66 72 76 77 76 81 96 118 134 131 154 219 221 225 232 235 235 236 238 243 249 254 257 262 265 268 269 268 268 269 272 274 273 271 268 267 265 266 268 269 272 274 274 273 275 278 281 283 284 285 284 284 284 285 287 289 290 290 291 291 289 287 284 283 283 283 286 287 287 290 290 289 290 290 286 286 286 285 287 289
58 58 57 58 59 60 64 68 70 72 78 86 95 96 72 62 70 92 176 227 225 228 235 236 238 243 245 247 253 258 263 266 267 268 269 271 273 276 276 274 271 269 269 270 269 270 271 272 272 273 275 278 281 283 285 285 285 285 286 287 289 289 291 295 295 293 291 289 287 287 286 288 288 288 289 289 288 288 284 279 283 286 282 282 285
59 60 59 59 60 61 62 65 66 69 74 79 82 74 57 62 69 70 57 20 319 259 256 257 256 257 256 253 254 256 259 262 264 265 265 263 266 271 276 278 277 276 277 277 275 273 274 274 273 273 274 277 280 282 284 283 283 284 284 285 286 287 290 294 295 295 295 293 291 290 289 289 289 289 290 289 287 286 279 277 284 285 279 276 279
58 60 60 60 60 61 63 64 63 63 66 70 72 55 5 38 65 69 55 22 360 353 339 314 296 290 283 272 264 262 264 267 271 271 267 263 261 262 267 271 273 275 279 282 281 281 280 280 279 277 277 279 281 282 282 282 281 282 283 282 281 282 286 291 292 293 294 293 292 291 290 290 290 289 288 286 283 281 279 281 285 282 276 276 276
58 59 60 60 60 60 63 65 65 66 68 73 81 97 142 126 65 61 62 39 5 360 1 352 334 320 305 283 270 269 271 274 287 291 281 270 266 264 265 269 272 274 277 279 280 281 282 284 286 287 286 285 285 285 283 282 281 280 279 277 275 278 285 288 289 290 290 289 288 287 287 288 289 287 285 282 279 280 282 284 285 281 276 274 273
56 58 58 60 61 60 61 63 65 66 69 73 79 84 90 91 78 67 70 64 38 23 18 17 17 19 17 6 350 336 312 296 294 292 288 289 285 278 276 277 279 283 284 284 285 284 283 285 289 292 293 291 289 288 285 284 282 280 278 278 279 282 286 286 285 285 284 283 283 282 282 283 283 281 279 278 279 283 287 287 286 284 280 275 272
56 58 59 59 59 57 57 58 60 60 60 63 68 68 68 71 75 76 75 70 62 54 51 60 66 61 51 47 47 47 40 20 347 312 297 310 329 318 305 297 291 293 292 291 292 291 290 291 291 291 292 290 288 287 286 284 282 281 281 282 282 284 285 284 283 283 281 280 280 278 277 276 276 276 276 277 281 286 289 289 289 289 286 283 279
56 59 60 59 57 55 53 52 54 55 54 57 62 63 64 67 70 72 72 69 67 65 63 64 60 51 43 45 50 52 49 37 20 0 339 327 329 19 24 9 342 318 307 300 298 297 293 291 289 286 286 287 287 286 286 284 283 283 285 286 286 285 284 283 283 283 282 282 278 275 274 273 273 274 276 280 285 289 290 291 292 293 292 291 289
51 54 56 55 54 52 50 48 48 49 49 51 55 58 59 62 64 66 67 65 62 58 55 51 47 41 37 38 44 50 50 41 27 18 9 355 331 323 9 12 359 342 334 326 318 311 301 291 287 287 288 289 291 291 289 288 287 287 288 290 290 287 283 282 282 284 285 284 278 274 276 277 276 278 282 286 289 291 292 293 295 296 294 293 292
46 49 50 49 47 45 42 40 40 42 43 44 46 47 47 50 53 54 55 55 51 46 43 38 35 33 30 28 32 41 47 46 37 27 20 12 352 304 300 344 351 338 326 322 319 319 316 306 299 300 300 298 297 294 292 290 289 289 291 294 295 294 291 289 286 283 282 282 280 279 282 284 285 286 289 292 292 292 294 297 299 299 296 295 294
54 54 52 48 44 40 36 31 28 29 32 36 40 42 40 40 41 41 40 41 38 33 30 28 25 23 23 24 27 33 42 48 43 32 23 17 7 332 297 321 344 336 327 322 315 310 310 308 308 307 305 303 300 297 294 292 291 291 293 296 298 300 302 301 296 288 281 280 281 281 283 287 290 291 293 294 293 294 296 299 300 300 298 297 295
61 60 58 53 47 42 38 34 29 26 24 24 27 32 32 32 32 29 25 24 23 22 19 17 16 14 15 21 25 28 32 31 23 19 16 11 7 355 333 328 338 337 336 337 329 321 316 313 311 308 305 303 302 301 303 304 305 306 307 309 310 309 308 308 305 297 288 284 284 285 287 289 291 292 294 294 293 295 298 301 300 298 297 297 293
59 59 58 56 52 46 43 41 38 34 28 22 20 21 22 23 25 27 23 16 11 11 11 11 9 4 2 10 18 18 18 13 5 2 1 356 353 351 346 341 338 339 342 343 339 333 328 325 328 331 331 330 329 331 334 335 335 334 331 329 330 329 326 320 312 306 300 297 295 294 296 297 296 297 299 299 298 300 302 303 299 296 295 294 287
58 56 53 52 50 48 46 44 41 35 28 21 17 16 16 17 18 20 23 19 10 3 1 4 4 357 352 358 4 2 3 3 359 353 349 346 342 340 340 340 337 338 342 342 339 338 341 352 3 5 4 5 3 358 353 352 352 350 347 346 347 348 346 337 324 319 315 309 303 300 301 302 302 303 304 301 301 303 303 300 297 295 293 288 279
57 53 49 47 45 43 43 41 38 33 27 20 12 6 6 10 14 13 12 13 10 1 356 358 359 355 349 346 349 351 354 357 357 351 344 338 332 328 328 330 332 335 339 341 343 352 5 15 20 18 15 15 13 6 360 359 359 357 355 355 356 354 351 342 332 327 321 313 306 303 303 302 302 303 302 299 299 302 301 298 295 293 289 282 275
57 53 48 44 41 37 35 33 31 28 25 21 13 4 357 356 2 8 6 2 359 353 347 350 356 357 352 343 334 338 348 355 355 349 342 336 329 320 317 319 322 325 333 345 0 17 24 25 24 19 15 13 9 0 356 358 359 356 356 359 1 0 358 354 348 343 336 328 322 318 315 312 309 306 302 298 298 300 299 298 295 290 285 281 276
55 55 50 41 36 32 28 25 22 19 15 12 10 6 359 353 352 356 359 358 354 349 343 343 350 358 358 352 344 339 343 352 351 345 342 340 332 319 309 306 304 303 314 345 18 36 37 33 26 17 11 6 359 351 349 350 349 347 348 350 350 349 351 351 349 348 347 346 345 343 340 337 332 325 317 310 306 303 301 299 297 292 287 284 280
51 51 44 31 27 28 23 18 15 12 8 7 5 3 1 355 347 347 349 351 349 348 347 346 344 345 352 358 359 355 350 351 352 348 346 348 345 334 311 270 246 265 319 358 29 46 44 35 27 20 15 10 4 358 353 348 344 340 340 340 338 337 338 339 339 338 337 340 344 345 343 342 341 338 334 328 322 317 312 309 306 300 291 286 284
48 47 38 23 18 21 20 14 7 0 358 360 0 358 357 352 346 344 347 349 349 348 349 350 346 342 339 343 353 355 351 350 353 353 351 350 350 350 344 243 218 328 9 21 36 45 40 30 25 20 16 11 7 3 358 353 349 344 337 334 332 330 330 333 336 336 334 336 339 339 338 337 337 336 334 333 331 328 324 322 319 314 303 294 289
37 37 33 23 16 16 13 5 359 356 353 353 353 350 345 343 344 344 347 349 348 345 345 345 345 343 339 334 338 343 343 343 347 352 352 346 336 331 326 312 317 6 17 22 30 31 26 22 20 16 13 9 5 2 359 356 353 350 342 335 331 329 330 332 333 332 332 333 333 332 332 334 333 331 330 330 329 327 324 323 324 321 315 308 300
24 23 22 18 14 11 5 356 353 352 350 347 344 339 336 337 337 340 346 347 343 338 338 341 343 343 338 331 332 335 336 336 338 344 348 341 321 307 311 321 328 346 351 357 8 12 11 12 12 9 7 5 2 359 357 355 353 351 346 339 335 333 333 333 332 330 329 328 327 327 328 330 330 330 331 328 325 323 321 319 319 317 315 312 307
19 14 10 8 5 0 353 349 350 348 345 342 337 335 337 337 332 336 345 343 336 331 332 337 342 344 342 339 338 335 332 328 324 327 336 333 310 291 301 318 314 307 310 320 334 348 357 1 3 2 1 359 359 358 355 353 351 347 343 340 338 336 334 332 333 333 330 326 324 325 327 328 329 330 330 326 322 320 318 318 319 317 315 314 309
11 2 359 359 353 343 340 343 345 341 339 340 339 335 337 338 334 334 337 333 327 324 325 329 335 339 340 341 342 341 336 329 318 312 318 321 306 292 294 300 296 292 295 302 311 326 341 351 355 356 356 355 355 354 352 350 347 344 341 340 338 336 334 332 334 336 335 331 329 328 327 328 329 329 328 326 323 320 317 317 318 316 313 312 310
357 351 351 351 343 336 337 340 337 333 333 338 341 340 339 336 330 324 323 323 321 317 317 317 321 326 329 332 337 340 340 336 329 320 315 311 303 296 292 289 287 289 291 293 298 312 329 340 346 349 350 350 350 349 347 344 341 339 338 338 336 334 333 330 329 331 331 329 326 325 324 324 324 324 325 324 321 318 315 313 312 310 307 304 303
351 348 348 346 338 333 332 330 325 325 328 327 324 327 327 323 318 314 315 319 318 313 310 309 310 315 320 325 331 335 334 331 329 326 318 309 302 296 287 283 284 287 287 287 295 312 325 334 339 341 343 344 344 343 340 337 335 333 333 333 331 329 327 325 324 324 323 322 320 321 321 320 317 317 318 319 319 318 316 312 309 306 303 300 298
349 345 343 340 335 329 325 320 314 315 317 313 310 312 313 312 310 312 316 320 317 313 310 308 308 313 319 324 329 330 326 321 321 322 317 308 300 290 281 280 283 283 281 282 297 312 320 327 332 335 338 339 339 338 336 335 333 330 328 328 326 322 321 321 320 320 319 318 316 316 316 316 314 312 314 316 317 319 319 316 311 305 302 299 296
346 344 343 340 336 330 326 325 326 330 332 330 323 317 315 313 314 318 322 322 320 317 315 315 315 317 321 327 331 330 324 318 316 318 319 313 302 291 283 280 279 276 271 277 296 306 314 322 327 331 333 335 335 334 334 332 331 328 325 324 322 319 318 317 316 316 316 314 312 310 310 311 310 308 309 311 313 315 317 316 310 304 303 302 299
339 341 343 340 337 337 338 339 340 342 342 338 332 326 324 325 326 328 327 323 320 318 317 316 315 315 318 330 339 338 332 323 315 314 318 318 312 304 295 283 272 262 260 279 298 310 318 323 326 327 329 331 332 331 329 328 327 325 322 320 318 316 315 314 313 313 312 310 309 308 306 306 307 305 304 305 306 308 311 311 306 300 299 300 299
335 341 344 341 340 346 349 350 349 347 344 342 341 341 337 332 329 328 327 323 322 321 318 317 320 323 328 337 344 344 340 334 326 320 320 321 319 313 301 279 258 251 268 291 305 316 320 322 323 325 326 327 328 327 325 325 324 322 320 318 315 312 311 310 309 310 309 308 307 307 305 304 304 302 300 300 300 302 304 304 301 296 294 294 294
339 344 344 344 346 348 348 348 349 348 347 348 348 345 337 328 324 324 324 322 323 323 322 326 334 339 339 339 342 344 345 344 340 335 332 332 329 321 305 282 275 287 302 312 317 320 323 324 324 324 324 325 325 325 324 324 322 321 319 316 314 312 311 310 309 308 306 304 303 303 302 301 301 300 299 298 298 296 294 294 294 294 292 290 289
344 348 348 349 351 348 344 344 345 346 346 346 343 340 335 330 326 325 325 324 325 325 326 329 334 337 336 335 337 341 345 346 345 344 343 342 340 336 330 325 323 322 322 322 322 322 323 324 324 323 324 324 325 325 324 322 321 320 318 315 313 312 311 312 311 308 306 304 302 300 298 297 295 295 296 297 296 294 294 295 296 295 292 289 288
18 19 14 4 356 350 347 346 345 345 346 346 342 338 336 334 333 333 333 333 332 330 328 328 328 327 328 328 329 334 339 341 339 339 340 338 336 335 333 330 329 328 325 324 325 325 325 325 325 325 325 325 325 324 323 321 319 318 316 315 313 312 311 311 310 308 306 306 304 301 299 297 295 295 298 299 298 296 296 297 296 294 291 289 288
43 36 27 15 6 0 355 351 348 346 345 344 342 340 339 339 339 339 337 334 332 330 329 329 328 328 328 327 326 326 330 333 334 336 337 335 335 335 334 332 331 330 329 329 329 329 328 328 327 326 325 325 324 322 320 317 315 314 312 312 311 312 312 310 307 306 306 306 305 303 302 300 298 298 299 299 298 297 297 297 295 292 290 289 287
46 38 30 23 17 10 2 355 352 350 346 344 344 342 342 342 341 338 335 331 329 327 327 329 331 332 332 332 331 329 328 329 333 335 336 336 336 335 334 333 332 332 332 332 332 331 330 329 328 325 324 323 321 319 317 315 312 310 309 307 307 310 311 309 306 305 305 305 303 303 302 301 299 298 298 297 296 296 296 296 294 292 289 287 286
47 41 36 31 23 15 8 0 356 353 350 348 347 345 343 342 341 338 335 333 331 330 330 330 332 334 334 334 335 335 332 331 332 333 334 334 335 335 335 334 335 335 335 334 334 333 331 330 328 327 325 323 321 319 317 314 312 310 308 306 306 308 309 309 307 307 306 304 302 300 300 299 297 297 296 295 294 294 294 293 292 290 287 284 283
44 38 33 28 22 18 14 8 2 358 356 354 352 349 347 345 341 338 337 336 334 333 333 333 334 335 334 335 337 337 335 334 334 335 335 336 336 336 336 335 335 335 335 335 335 334 332 331 329 328 327 325 323 320 317 315 313 311 309 309 309 309 310 309 308 306 305 303 300 299 299 298 297 296 295 294 294 292 290 288 286 285 284 283 283